EW2485 Weather Reports


time (UTC)temp
C
wind
direction
speed
KPH
gust
KPH
rain 1hr
cm
rain 24hr
cm
rain mn
cm
humidity
%
barometer
mb
20260509044557 3 351 4.8 8.0 0.00 0.41 0.00 81 1012.5
20260509043012 2 1 4.8 8.0 0.00 0.41 0.00 81 1012.4
20260509041538 3 351 3.2 8.0 0.00 0.41 0.00 81 1012.6
20260509040058 3 339 4.8 9.7 0.00 0.41 0.41 81 1012.7
20260509034515 2 1 3.2 6.4 0.00 0.41 0.41 82 1012.7
20260509033040 3 15 3.2 9.7 0.00 0.41 0.41 82 1012.7
20260509031603 3 28 4.8 11.3 0.00 0.41 0.41 82 1012.7
20260509030032 3 1 6.4 9.7 0.00 0.41 0.41 81 1012.8
20260509024549 3 13 3.2 8.0 0.00 0.41 0.41 81 1013.0
20260509023014 4 46 3.2 8.0 0.00 0.41 0.41 81 1013.1
20260509021534 4 20 4.8 9.7 0.00 0.41 0.41 81 1012.9
20260509020022 5 13 6.4 8.0 0.00 0.41 0.41 81 1013.1
20260509014557 5 20 6.4 9.7 0.00 0.41 0.41 80 1013.0
20260509013105 5 347 3.2 6.4 0.00 0.41 0.41 80 1012.8
20260509011517 5 6 3.2 12.9 0.00 0.41 0.41 79 1012.6
20260509010035 5 13 6.4 9.7 0.00 0.41 0.41 79 1012.4
20260509004554 5 8 6.4 11.3 0.00 0.41 0.41 78 1012.2
20260509003016 6 1 4.8 8.0 0.00 0.41 0.41 75 1012.1
20260509001537 7 331 6.4 8.0 0.00 0.41 0.41 71 1011.9
20260509000055 8 1 6.4 8.0 0.00 0.41 0.41 68 1011.8
20260508234509 10 340 3.2 8.0 0.00 0.41 0.41 63 1011.6
20260508233036 10 344 4.8 11.3 0.00 0.41 0.41 61 1011.4
20260508231555 11 338 6.4 11.3 0.00 0.41 0.41 61 1011.4
20260508230048 11 347 6.4 9.7 0.00 0.41 0.41 59 1011.4
20260508224534 11 340 8.0 17.7 0.00 0.41 0.41 59 1011.5
20260508223059 12 23 4.8 14.5 0.00 0.41 0.41 57 1011.4
20260508221535 12 300 3.2 9.7 0.00 0.41 0.41 58 1011.4
20260508220059 11 197 3.2 17.7 0.00 0.41 0.41 59 1011.5
20260508214525 11 340 9.7 19.3 0.00 0.41 0.41 61 1011.7
20260508213107 11 269 11.3 20.9 0.00 0.41 0.41 57 1011.7
20260508211512 12 308 12.9 30.6 0.00 0.41 0.41 56 1011.7
20260508210035 12 241 11.3 29.0 0.00 0.41 0.41 55 1011.8
20260508204555 12 300 9.7 16.1 0.00 0.41 0.41 60 1011.8
20260508203013 12 308 12.9 22.5 0.00 0.41 0.41 54 1012.0
20260508201542 11 296 11.3 20.9 0.00 0.41 0.41 59 1012.1
20260508200017 11 223 6.4 24.1 0.00 0.41 0.41 63 1012.2
20260508194550 11 115 16.1 30.6 0.00 0.41 0.41 60 1012.5
20260508193054 10 225 8.0 24.1 0.00 0.41 0.41 67 1012.6
20260508191552 10 219 4.8 27.4 0.00 0.41 0.41 65 1012.9
20260508190010 10 257 14.5 30.6 0.00 0.41 0.41 67 1012.9
20260508184533 10 250 11.3 22.5 0.00 0.41 0.41 71 1013.1
20260508183058 8 318 12.9 29.0 0.00 0.41 0.41 75 1013.3
20260508181520 8 271 12.9 19.3 0.00 0.41 0.41 76 1013.5
20260508180037 7 309 9.7 27.4 0.00 0.41 0.41 74 1013.5
20260508174615 8 340 6.4 25.7 0.00 0.41 0.41 76 1013.5
20260508173018 8 140 9.7 16.1 0.00 0.41 0.41 78 1013.6
20260508171555 7 190 6.4 17.7 0.00 0.41 0.41 81 1013.7
20260508170010 7 168 4.8 22.5 0.00 0.41 0.41 80 1013.7
20260508164605 7 231 3.2 19.3 0.00 0.41 0.41 82 1013.7
20260508163038 6 204 6.4 14.5 0.00 0.41 0.41 83 1013.7
20260508161513 6 319 4.8 19.3 0.00 0.41 0.41 84 1013.8
20260508160039 4 32 4.8 20.9 0.00 0.41 0.41 83 1013.9
20260508154558 4 279 4.8 17.7 0.03 0.41 0.41 83 1014.0
20260508153032 3 269 6.4 11.3 0.03 0.41 0.41 84 1014.0
20260508151546 3 206 4.8 14.5 0.03 0.41 0.41 83 1014.0
20260508150059 2 346 1.6 4.8 0.05 0.41 0.41 84 1013.7
20260508144522 2 269 4.8 11.3 0.08 0.38 0.38 83 1013.9
20260508143044 2 250 3.2 8.0 0.13 0.38 0.38 83 1014.0
20260508141510 2 1 0.0 3.2 0.25 0.38 0.38 83 1013.6
20260508140032 2 344 0.0 8.0 0.33 0.36 0.36 83 1013.7
20260508134601 2 300 4.8 9.7 0.30 0.30 0.30 83 1013.9
20260508133009 2 330 4.8 16.1 0.23 0.23 0.25 83 1013.6
20260508131547 3 259 6.4 24.1 0.13 0.13 0.15 82 1013.7
20260508130009 5 203 1.6 16.1 0.03 0.03 0.03 81 1013.1
20260508124545 5 135 4.8 9.7 0.00 0.00 0.00 80 1012.9
20260508123012 6 226 3.2 8.0 0.00 0.00 0.00 80 1012.3
20260508121537 6 150 4.8 9.7 0.00 0.00 0.00 80 1012.1
20260508120101 5 163 3.2 9.7 0.00 0.00 0.00 82 1012.1
20260508114523 4 89 1.6 4.8 0.00 0.00 0.00 83 1012.5
20260508113053 3 279 1.6 4.8 0.00 0.00 0.00 83 1012.4
20260508111502 2 89 1.6 6.4 0.00 0.00 0.00 84 1012.6
20260508110027 2 135 1.6 6.4 0.00 0.00 0.00 84 1012.7
20260508104550 1 15 1.6 4.8 0.00 0.00 0.00 84 1012.7
20260508103001 1 1 3.2 6.4 0.00 0.00 0.00 84 1012.7
20260508101549 1 1 1.6 4.8 0.00 0.00 0.00 83 1012.8
20260508100031 1 15 1.6 4.8 0.00 0.00 0.00 83 1012.8
20260508094506 0 223 1.6 4.8 0.00 0.00 0.00 83 1012.9
20260508093039 0 314 0.0 3.2 0.00 0.00 0.00 83 1012.8
20260508091507 0 117 1.6 4.8 0.00 0.00 0.00 83 1012.7
20260508090025 0 340 1.6 4.8 0.00 0.00 0.00 82 1012.4
20260508084543 1 15 3.2 6.4 0.00 0.00 0.00 82 1012.6
20260508083013 1 1 3.2 8.0 0.00 0.00 0.00 82 1012.3
20260508081535 2 63 1.6 6.4 0.00 0.00 0.00 82 1012.3
20260508080059 2 253 3.2 6.4 0.00 0.00 0.00 81 1012.4
20260508074509 3 331 4.8 9.7 0.00 0.00 0.00 80 1012.1
20260508073041 3 23 3.2 9.7 0.00 0.00 0.00 79 1012.1
20260508071525 4 331 3.2 12.9 0.00 0.00 0.00 79 1012.3
20260508070100 4 330 3.2 11.3 0.00 0.00 0.00 80 1012.3
20260508064535 3 331 1.6 8.0 0.00 0.00 0.00 81 1012.4
20260508063125 3 334 3.2 8.0 0.00 0.00 0.00 83 1012.1
20260508061518 2 18 3.2 8.0 0.00 0.00 0.00 83 1012.0
20260508060039 2 15 3.2 6.4 0.00 0.00 0.00 83 1011.8
20260508054554 2 28 3.2 6.4 0.00 0.00 0.00 83 1011.9
20260508053010 2 6 4.8 9.7 0.00 0.00 0.00 83 1012.0
20260508051602 2 1 0.0 3.2 0.00 0.00 0.00 82 1012.1
20260508050055 2 1 3.2 4.8 0.00 0.00 0.00 82 1012.3